• In Czech Republic
  • List of Countries
  • For 7 days
  • Water Temperature
  • Satellite Maps
  • Weather Map
  • Weather Widgets
  • user-avatar
    Login

    Hourly Weather Lampeter

    Today, 24 October, Wednesday

    Time Temperature Precipitation Wind Pressure Humidity
    00:00 +12°C° 0 mm 9 mps 763 mmHg 86%
    01:00 +12°C° 0 mm 8 mps 763 mmHg 87%
    02:00 +11°C° 0 mm 8 mps 763 mmHg 88%
    03:00 +11°C° 0 mm 8 mps 763 mmHg 89%
    04:00 +11°C° 0 mm 7 mps 763 mmHg 88%
    05:00 +11°C° 0 mm 7 mps 763 mmHg 88%
    06:00 +10°C° 0 mm 7 mps 763 mmHg 88%
    07:00 +10°C° 0 mm 7 mps 763 mmHg 87%
    08:00 +10°C° 0 mm 7 mps 764 mmHg 85%
    09:00 +10°C° 0 mm 7 mps 764 mmHg 84%
    10:00 +10°C° 0 mm 7 mps 764 mmHg 82%
    11:00 +10°C° 0 mm 7 mps 764 mmHg 80%
    12:00 +10°C° 0 mm 8 mps 764 mmHg 78%
    13:00 +10°C° 0 mm 8 mps 763 mmHg 78%
    14:00 +10°C° 0 mm 7 mps 763 mmHg 78%
    15:00 +10°C° 0 mm 7 mps 763 mmHg 78%
    16:00 +10°C° 0 mm 7 mps 763 mmHg 80%
    17:00 +9°C° 0 mm 7 mps 762 mmHg 81%
    18:00 +9°C° 0 mm 6 mps 762 mmHg 82%
    19:00 +9°C° 0 mm 6 mps 762 mmHg 83%
    20:00 +9°C° 0 mm 6 mps 762 mmHg 84%
    21:00 +9°C° 0 mm 6 mps 762 mmHg 85%
    22:00 +9°C° 0 mm 6 mps 761 mmHg 86%
    23:00 +9°C° 0 mm 7 mps 761 mmHg 88%

    Tomorrow, 25 October, Thursday

    Time Temperature Precipitation Wind Pressure Humidity
    00:00 +9°C° 0 mm 7 mps 760 mmHg 89%
    01:00 +10°C° 0 mm 7 mps 760 mmHg 89%
    02:00 +10°C° 0 mm 7 mps 760 mmHg 89%
    03:00 +10°C° 0 mm 7 mps 759 mmHg 88%
    04:00 +11°C° 0 mm 7 mps 759 mmHg 89%
    05:00 +11°C° 0 mm 7 mps 759 mmHg 89%
    06:00 +11°C° 0 mm 7 mps 759 mmHg 89%
    07:00 +11°C° 0 mm 6 mps 759 mmHg 89%
    08:00 +11°C° 0 mm 6 mps 759 mmHg 89%
    09:00 +11°C° 0 mm 6 mps 759 mmHg 88%
    10:00 +11°C° 0 mm 7 mps 758 mmHg 87%
    11:00 +11°C° 0 mm 7 mps 758 mmHg 85%
    12:00 +12°C° 0 mm 7 mps 758 mmHg 83%
    13:00 +11°C° 0.1 mm 7 mps 757 mmHg 84%
    14:00 +11°C° 0.1 mm 7 mps 756 mmHg 84%
    15:00 +11°C° 0.1 mm 7 mps 756 mmHg 85%
    16:00 +10°C° 0.2 mm 7 mps 755 mmHg 85%
    17:00 +10°C° 0.2 mm 8 mps 754 mmHg 86%
    18:00 +10°C° 0.2 mm 8 mps 754 mmHg 87%
    19:00 +9°C° 0.3 mm 8 mps 753 mmHg 86%
    20:00 +9°C° 0.3 mm 7 mps 753 mmHg 86%
    21:00 +9°C° 0.3 mm 7 mps 753 mmHg 86%
    22:00 +8°C° 0.2 mm 7 mps 752 mmHg 85%
    23:00 +5°C° 0.2 mm 7 mps 752 mmHg 83%

    Day after tomorrow, 26 October, Friday

    Time Temperature Precipitation Wind Pressure Humidity
    00:00 +4°C° 0.2 mm 7 mps 752 mmHg 82%
    01:00 +4°C° 0 mm 7 mps 752 mmHg 82%
    02:00 +3°C° 0 mm 7 mps 752 mmHg 82%
    03:00 +3°C° 0 mm 7 mps 751 mmHg 81%
    04:00 +3°C° 0 mm 7 mps 752 mmHg 81%
    05:00 +2°C° 0 mm 7 mps 752 mmHg 81%
    06:00 +2°C° 0 mm 7 mps 752 mmHg 82%
    07:00 +3°C° 0 mm 7 mps 752 mmHg 79%
    08:00 +3°C° 0 mm 7 mps 753 mmHg 77%
    09:00 +3°C° 0 mm 7 mps 754 mmHg 75%
    10:00 +4°C° 0 mm 7 mps 754 mmHg 70%
    11:00 +5°C° 0 mm 8 mps 755 mmHg 66%
    12:00 +6°C° 0 mm 8 mps 755 mmHg 61%
    13:00 +6°C° 0 mm 8 mps 755 mmHg 61%
    14:00 +6°C° 0 mm 7 mps 756 mmHg 61%
    15:00 +6°C° 0 mm 7 mps 756 mmHg 61%
    16:00 +5°C° 0.1 mm 7 mps 757 mmHg 65%
    17:00 +4°C° 0.1 mm 7 mps 757 mmHg 69%
    18:00 +3°C° 0.1 mm 6 mps 758 mmHg 73%
    19:00 +2°C° 0 mm 6 mps 759 mmHg 73%
    20:00 +1°C° 0 mm 6 mps 759 mmHg 73%
    21:00 +1°C° 0 mm 6 mps 760 mmHg 73%
    22:00 +1°C° 0 mm 6 mps 760 mmHg 74%
    23:00 -1°C° 0 mm 6 mps 760 mmHg 74%

    27 October, Saturday

    Time Temperature Precipitation Wind Pressure Humidity
    00:00 -1°C° 0 mm 6 mps 761 mmHg 75%
    01:00 -1°C° 0 mm 6 mps 761 mmHg 74%
    02:00 -1°C° 0 mm 6 mps 761 mmHg 74%
    03:00 -2°C° 0 mm 6 mps 761 mmHg 74%
    04:00 -2°C° 0 mm 6 mps 761 mmHg 73%
    05:00 -2°C° 0 mm 6 mps 761 mmHg 72%
    06:00 -2°C° 0 mm 6 mps 761 mmHg 71%
    07:00 -2°C° 0 mm 7 mps 761 mmHg 67%
    08:00 -1°C° 0 mm 7 mps 761 mmHg 63%
    09:00 0°C° 0 mm 7 mps 761 mmHg 59%
    10:00 +2°C° 0 mm 7 mps 761 mmHg 57%
    11:00 +3°C° 0 mm 7 mps 761 mmHg 54%
    12:00 +4°C° 0 mm 7 mps 761 mmHg 52%
    13:00 +4°C° 0 mm 6 mps 760 mmHg 55%
    14:00 +4°C° 0 mm 6 mps 760 mmHg 59%
    15:00 +4°C° 0 mm 6 mps 759 mmHg 62%
    16:00 +4°C° 0.1 mm 6 mps 760 mmHg 66%
    17:00 +3°C° 0.1 mm 6 mps 760 mmHg 69%
    18:00 +2°C° 0.1 mm 6 mps 761 mmHg 72%
    19:00 +2°C° 0.1 mm 6 mps 762 mmHg 74%
    20:00 +1°C° 0.1 mm 6 mps 762 mmHg 75%
    21:00 +1°C° 0.1 mm 6 mps 763 mmHg 76%
    22:00 +1°C° 0.1 mm 6 mps 763 mmHg 77%
    23:00 +1°C° 0.1 mm 5 mps 764 mmHg 79%

    28 October, Sunday

    Time Temperature Precipitation Wind Pressure Humidity
    00:00 0°C° 0.1 mm 5 mps 764 mmHg 80%
    01:00 0°C° 0.1 mm 5 mps 764 mmHg 82%
    02:00 0°C° 0.1 mm 5 mps 764 mmHg 84%
    03:00 0°C° 0.1 mm 5 mps 765 mmHg 86%
    04:00 0°C° 0 mm 4 mps 765 mmHg 87%
    05:00 -1°C° 0 mm 4 mps 765 mmHg 89%
    06:00 -1°C° 0 mm 4 mps 765 mmHg 90%
    07:00 0°C° 0 mm 4 mps 766 mmHg 87%
    08:00 +2°C° 0 mm 3 mps 766 mmHg 84%
    09:00 +3°C° 0 mm 3 mps 766 mmHg 81%
    10:00 +4°C° 0 mm 3 mps 766 mmHg 75%
    11:00 +5°C° 0 mm 3 mps 766 mmHg 70%
    12:00 +7°C° 0 mm 3 mps 766 mmHg 64%
    13:00 +7°C° 0 mm 2 mps 766 mmHg 65%
    14:00 +7°C° 0 mm 2 mps 765 mmHg 65%
    15:00 +8°C° 0 mm 1 mps 765 mmHg 66%
    16:00 +6°C° 0 mm 1 mps 765 mmHg 72%
    17:00 +5°C° 0 mm 1 mps 765 mmHg 78%
    18:00 +3°C° 0 mm 1 mps 764 mmHg 84%
    19:00 +3°C° 0 mm 1 mps 764 mmHg 85%
    20:00 +2°C° 0 mm 1 mps 764 mmHg 86%
    21:00 +2°C° 0 mm 1 mps 764 mmHg 87%
    22:00 +2°C° 0 mm 1 mps 763 mmHg 88%
    23:00 +1°C° 0 mm 2 mps 762 mmHg 88%

    29 October, Monday

    Time Temperature Precipitation Wind Pressure Humidity
    00:00 +1°C° 0 mm 2 mps 762 mmHg 88%
    01:00 +1°C° 0 mm 2 mps 761 mmHg 88%
    02:00 +1°C° 0 mm 2 mps 760 mmHg 88%
    03:00 +1°C° 0 mm 2 mps 759 mmHg 88%
    04:00 0°C° 0 mm 3 mps 759 mmHg 88%
    05:00 0°C° 0 mm 3 mps 758 mmHg 87%
    06:00 0°C° 0 mm 3 mps 758 mmHg 87%
    07:00 0°C° 0 mm 4 mps 757 mmHg 82%
    08:00 +1°C° 0 mm 4 mps 757 mmHg 78%
    09:00 +2°C° 0 mm 5 mps 756 mmHg 74%
    10:00 +3°C° 0 mm 6 mps 755 mmHg 69%
    11:00 +4°C° 0 mm 6 mps 755 mmHg 64%
    12:00 +5°C° 0 mm 7 mps 754 mmHg 59%
    13:00 +5°C° 0 mm 7 mps 754 mmHg 60%
    14:00 +5°C° 0 mm 6 mps 753 mmHg 61%
    15:00 +5°C° 0 mm 6 mps 752 mmHg 62%
    16:00 +5°C° 0 mm 5 mps 752 mmHg 65%
    17:00 +3°C° 0 mm 5 mps 752 mmHg 69%
    18:00 +2°C° 0 mm 5 mps 752 mmHg 72%
    19:00 +2°C° 0 mm 5 mps 752 mmHg 73%
    20:00 +2°C° 0 mm 5 mps 752 mmHg 74%
    21:00 +1°C° 0 mm 4 mps 752 mmHg 75%
    22:00 +1°C° 0 mm 4 mps 751 mmHg 76%
    23:00 +1°C° 0 mm 3 mps 751 mmHg 77%

    30 October, Tuesday

    Time Temperature Precipitation Wind Pressure Humidity
    00:00 +1°C° 0 mm 3 mps 751 mmHg 78%
    01:00 +1°C° 0 mm 3 mps 750 mmHg 80%
    02:00 +1°C° 0 mm 3 mps 750 mmHg 81%
    03:00 +1°C° 0 mm 3 mps 750 mmHg 82%
    04:00 +1°C° 0.1 mm 3 mps 750 mmHg 85%
    05:00 +1°C° 0.1 mm 3 mps 750 mmHg 87%
    06:00 +1°C° 0.1 mm 3 mps 750 mmHg 89%
    07:00 +1°C° 0.2 mm 4 mps 750 mmHg 88%
    08:00 +3°C° 0.2 mm 4 mps 750 mmHg 87%
    09:00 +3°C° 0.2 mm 4 mps 750 mmHg 85%
    10:00 +4°C° 0.1 mm 4 mps 749 mmHg 80%
    11:00 +5°C° 0.1 mm 4 mps 749 mmHg 75%
    12:00 +6°C° 0.1 mm 4 mps 749 mmHg 70%
    13:00 +6°C° 0 mm 4 mps 748 mmHg 71%
    14:00 +7°C° 0 mm 3 mps 748 mmHg 72%
    15:00 +7°C° 0 mm 3 mps 748 mmHg 73%
    16:00 +4°C° 0 mm 3 mps 747 mmHg 78%
    17:00 +3°C° 0 mm 3 mps 747 mmHg 83%
    18:00 +2°C° 0 mm 2 mps 747 mmHg 88%
    19:00 +2°C° 0 mm 2 mps 747 mmHg 89%
    20:00 +2°C° 0 mm 2 mps 747 mmHg 90%
    21:00 +1°C° 0 mm 2 mps 747 mmHg 91%
    22:00 +1°C° 0 mm 2 mps 746 mmHg 91%
    23:00 +1°C° 0 mm 2 mps 746 mmHg 91%
    Show more